Tracking 20093 objects as of 14-Dec-2019
HD Live streaming from Space Station
objects crossing your sky now

COSMOS 2251 DEB

Track COSMOS 2251 DEB now!
10-day predictions


NORAD ID: 37305
Int'l Code: 1993-036BJV
Perigee: 766.8 km
Apogee: 841.5 km
Inclination: 73.9 °
Period: 100.8 minutes
Semi major axis: 7175 km
RCS: 0.0061 m2 (small)
Launch date: June 16, 1993
Source: Commonwealth of Independent States (former USSR) (CIS)
Launch site: PLESETSK MISSILE AND SPACE COMPLEX (PKMTR)

Note: This is SATELLITE DEBRIS
aabbcc
Your satellite tracking list
Your tracking list is empty




NASA's NSSDC Master Catalog

Two Line Element Set (TLE):
1 37305U 93036BJV 19347.76169759  .00000301  00000-0  12916-3 0  9999
2 37305  73.8720 359.0237 0052088  29.7904 330.6191 14.28420968536382
Source of the keplerian elements: AFSPC